Weather History for Morristown, NJ

Change the Weather History Date:

Wednesday, February 19, 2014

  Actual Average Record
Temperature  
Mean Temperature 30 °F -  
Max Temperature 44 °F 40 °F 68 °F (1981)
Min Temperature 15 °F 21 °F -6 °F (1979)
Degree Days  
Heating Degree Days 36    
Moisture  
Dew Point 25 °F    
Average Humidity 84    
Maximum Humidity 93    
Minimum Humidity 53    
Precipitation  
Precipitation 0.00 in - - ()
Sea Level Pressure  
Sea Level Pressure 29.95 in    
Wind  
Wind Speed 2 mph (WNW)    
Max Wind Speed 13 mph    
Max Gust Speed 25 mph    
Visibility 6 miles    
Events Rain , Thunderstorm    
Averages and records for this station are not official NWS values.
T = Trace of Precipitation, MM = Missing Value Source: NWS Daily Summary

Daily Weather History Graph

Daily Weather History Graph

Search for Another Location

Airport:

Trip Planner

Search our weather history database for the weather conditions in past years. The results will help you decide how hot, cold, wet, or windy it might be!

Date:

Astronomy

Feb. 19, 2014 Rise Set
Actual Time 6:46 AM EST 5:37 PM EST
Civil Twilight 6:18 AM EST 6:05 PM EST
Nautical Twilight 5:46 AM EST 6:37 PM EST
Astronomical Twilight 5:14 AM EST 7:08 PM EST
Moon 10:30 PM EST (2/19) 8:48 AM EST (2/19)
Length of Visible Light 11h 46m
Length of Day
10h 50m
Waning Gibbous, 80% of the Moon is Illuminated
Feb 19
Waning Gibbous
Feb 22
Last Quarter
Mar 1
New
Mar 8
First Quarter
Mar 16
Full

Hourly Weather History & Observations

Time (EST) Temp. Windchill Dew Point Humidity Pressure Visibility Wind Dir Wind Speed Gust Speed Precip Events Conditions
12:15 AM 19.4 °F - 17.6 °F 93% 30.10 in 7.0 mi Calm Calm - N/A   Clear
12:55 AM 19.4 °F - 15.8 °F 86% 30.10 in 7.0 mi Calm Calm - N/A   Clear
1:15 AM 19.4 °F - 15.8 °F 86% 30.09 in 5.0 mi Calm Calm - N/A   Clear
1:35 AM 21.2 °F - 17.6 °F 86% 30.09 in 7.0 mi Calm Calm - N/A   Clear
1:55 AM 21.2 °F - 17.6 °F 86% 30.09 in 7.0 mi Calm Calm - N/A   Clear
2:15 AM 19.4 °F - 15.8 °F 86% 30.08 in 4.0 mi Calm Calm - N/A   Clear
2:35 AM 19.4 °F - 17.6 °F 93% 30.09 in 7.0 mi Calm Calm - N/A   Clear
2:55 AM 19.4 °F - 15.8 °F 86% 30.09 in 7.0 mi Calm Calm - N/A   Clear
3:15 AM 19.4 °F - 17.6 °F 93% 30.09 in 7.0 mi Calm Calm - N/A   Clear
3:35 AM 19.4 °F - 17.6 °F 93% 30.07 in 10.0 mi Calm Calm - N/A   Clear
3:55 AM 19.4 °F - 17.6 °F 93% 30.06 in 7.0 mi Calm Calm - N/A   Clear
4:15 AM 19.4 °F - 17.6 °F 93% 30.05 in 7.0 mi Calm Calm - N/A   Clear
4:35 AM 19.4 °F - 17.6 °F 93% 30.05 in 7.0 mi Calm Calm - N/A   Clear
4:55 AM 19.4 °F - 17.6 °F 93% 30.05 in 7.0 mi Calm Calm - N/A   Clear
5:15 AM 19.4 °F - 15.8 °F 86% 30.03 in 7.0 mi Calm Calm - N/A   Clear
5:35 AM 19.4 °F - 17.6 °F 93% 30.01 in 7.0 mi Calm Calm - N/A   Clear
6:45 AM 15.8 °F - 14.0 °F 93% 29.98 in 7.0 mi Calm Calm - N/A   Overcast
7:45 AM 17.6 °F - 15.8 °F 93% 29.96 in 7.0 mi Calm Calm - N/A   Scattered Clouds
8:45 AM 26.6 °F - 23.0 °F 86% 29.92 in 7.0 mi Calm Calm - N/A   Overcast
9:45 AM 33.8 °F 28.6 °F 26.6 °F 75% 29.92 in 6.0 mi NNW 5.8 mph - N/A   Mostly Cloudy
10:45 AM 33.8 °F 27.0 °F 28.4 °F 81% 29.87 in 2.5 mi ENE 8.1 mph - N/A Rain , Thunderstorm Light Thunderstorms and Rain
11:45 AM 33.8 °F 30.8 °F 30.2 °F 87% 29.82 in 1.5 mi North 3.5 mph - N/A Rain Light Rain
12:45 PM 33.8 °F - 32.0 °F 93% 29.78 in 1.0 mi Calm Calm - N/A Rain Light Rain
1:25 PM 35.6 °F - 33.8 °F 93% 29.75 in 1.5 mi Calm Calm - N/A Rain Light Rain
1:50 PM 35.6 °F - 33.8 °F 93% 29.74 in 1.5 mi Calm Calm - N/A   Overcast
2:45 PM 37.4 °F - 35.6 °F 93% 29.72 in 1.5 mi Calm Calm - N/A   Overcast
3:45 PM 41.0 °F 39.0 °F 37.4 °F 87% 29.70 in 3.0 mi SSE 3.5 mph - N/A   Haze
4:45 PM 41.0 °F - 37.4 °F 87% 29.73 in 4.0 mi Calm Calm - N/A   Haze
5:45 PM 39.2 °F 35.0 °F 35.6 °F 87% 29.76 in 4.0 mi SW 5.8 mph - N/A   Haze
6:45 PM 41.0 °F 37.1 °F 33.8 °F 76% 29.80 in 5.0 mi West 5.8 mph - N/A   Haze
7:45 PM 41.0 °F 35.2 °F 33.8 °F 76% 29.82 in 5.0 mi West 9.2 mph - N/A   Haze
8:45 PM 42.8 °F 39.3 °F 35.6 °F 76% 29.87 in 5.0 mi West 5.8 mph - N/A   Haze
9:45 PM 42.8 °F 37.0 °F 33.8 °F 70% 29.91 in 7.0 mi West 10.4 mph - N/A   Scattered Clouds
9:55 PM 44.6 °F 41.4 °F 35.6 °F 71% 29.91 in 10.0 mi West 5.8 mph - N/A   Clear
10:15 PM 44.6 °F 40.7 °F 33.8 °F 66% 29.93 in 10.0 mi West 6.9 mph 16.1 mph N/A   Scattered Clouds
10:35 PM 44.6 °F 38.4 °F 33.8 °F 66% 29.94 in 10.0 mi WNW 12.7 mph 25.3 mph N/A   Clear
10:55 PM 44.6 °F 40.2 °F 32.0 °F 61% 29.95 in 10.0 mi NW 8.1 mph 23.0 mph N/A   Clear
11:35 PM 44.6 °F 40.2 °F 30.2 °F 57% 29.99 in 10.0 mi NW 8.1 mph 20.7 mph N/A   Clear
11:55 PM 44.6 °F 41.4 °F 28.4 °F 53% 30.00 in 10.0 mi WNW 5.8 mph - N/A   Clear